Time,TemperatureF,DewpointF,PressureIn,WindDirection,WindDirectionDegrees,WindSpeedMPH,WindSpeedGustMPH,Humidity,HourlyPrecipIn,Conditions,Clouds,dailyrainin,SolarRadiationWatts/m^2,SoftwareType,DateUTC
2013-05-24 00:02:00,75.0,65.0,-100.00,ENE,73,3.0,6.0,70,0.00,,,0.00,0.000000,,2013-05-24 10:02:00,
2013-05-24 00:12:00,75.0,65.0,-100.00,ENE,73,3.0,6.0,70,0.00,,,0.00,0.000000,,2013-05-24 10:12:00,
2013-05-24 00:22:00,74.0,63.0,-100.00,ENE,69,4.0,7.0,69,0.00,,,0.00,0.000000,,2013-05-24 10:22:00,
2013-05-24 00:42:00,74.0,63.0,-100.00,ENE,69,4.0,7.0,69,0.00,,,0.00,0.000000,,2013-05-24 10:42:00,
2013-05-24 00:52:00,74.0,63.0,-100.00,ENE,69,4.0,7.0,69,0.00,,,0.00,0.000000,,2013-05-24 10:52:00,
2013-05-24 01:02:00,74.0,63.0,-100.00,ENE,69,4.0,7.0,69,0.00,,,0.00,0.000000,,2013-05-24 11:02:00,
2013-05-24 01:12:00,74.0,63.0,-100.00,ENE,69,4.0,7.0,69,0.00,,,0.00,0.000000,,2013-05-24 11:12:00,
2013-05-24 01:42:00,74.0,64.0,-100.00,ENE,69,4.0,7.0,71,0.00,,,0.00,0.000000,,2013-05-24 11:42:00,
2013-05-24 01:52:00,74.0,64.0,-100.00,ENE,69,4.0,7.0,71,0.00,,,0.00,0.000000,,2013-05-24 11:52:00,
2013-05-24 02:01:00,74.0,64.0,-100.00,ENE,69,4.0,7.0,71,0.00,,,0.00,0.000000,,2013-05-24 12:01:00,
2013-05-24 02:11:00,74.0,64.0,-100.00,ENE,69,4.0,7.0,71,0.00,,,0.00,0.000000,,2013-05-24 12:11:00,
2013-05-24 02:21:00,74.0,64.0,-100.00,ENE,69,4.0,7.0,71,0.00,,,0.00,0.000000,,2013-05-24 12:21:00,
2013-05-24 02:42:00,73.0,62.0,-100.00,East,81,4.0,7.0,68,0.00,,,0.00,0.000000,,2013-05-24 12:42:00,
2013-05-24 02:52:00,73.0,62.0,-100.00,East,81,4.0,7.0,68,0.00,,,0.00,0.000000,,2013-05-24 12:52:00,
2013-05-24 03:02:00,73.0,62.0,-100.00,East,81,4.0,7.0,68,0.00,,,0.00,0.000000,,2013-05-24 13:02:00,
2013-05-24 03:11:00,73.0,62.0,-100.00,East,81,4.0,7.0,68,0.00,,,0.00,0.000000,,2013-05-24 13:11:00,
2013-05-24 03:21:00,73.0,62.0,-100.00,East,81,4.0,7.0,68,0.00,,,0.00,0.000000,,2013-05-24 13:21:00,
2013-05-24 03:42:00,72.0,60.0,-100.00,East,82,4.0,8.0,66,0.00,,,0.00,0.000000,,2013-05-24 13:42:00,
2013-05-24 03:52:00,72.0,60.0,-100.00,East,82,4.0,8.0,66,0.00,,,0.00,0.000000,,2013-05-24 13:52:00,
2013-05-24 04:01:00,72.0,60.0,-100.00,East,82,4.0,8.0,66,0.00,,,0.00,0.000000,,2013-05-24 14:01:00,
2013-05-24 04:11:00,72.0,60.0,-100.00,East,82,4.0,8.0,66,0.00,,,0.00,0.000000,,2013-05-24 14:11:00,
2013-05-24 04:21:00,72.0,60.0,-100.00,East,82,4.0,8.0,66,0.00,,,0.00,0.000000,,2013-05-24 14:21:00,
2013-05-24 04:42:00,73.0,60.0,-100.00,East,82,4.0,8.0,64,0.00,,,0.00,0.000000,,2013-05-24 14:42:00,
2013-05-24 04:52:00,73.0,60.0,-100.00,East,82,4.0,8.0,64,0.00,,,0.00,0.000000,,2013-05-24 14:52:00,
2013-05-24 05:02:00,73.0,60.0,-100.00,East,82,4.0,8.0,64,0.00,,,0.00,0.000000,,2013-05-24 15:02:00,
2013-05-24 05:11:00,73.0,60.0,-100.00,East,82,4.0,8.0,64,0.00,,,0.00,0.000000,,2013-05-24 15:11:00,
2013-05-24 05:21:00,73.0,60.0,-100.00,East,82,4.0,8.0,64,0.00,,,0.00,0.000000,,2013-05-24 15:21:00,
2013-05-24 05:22:00,72.0,59.0,-100.00,East,84,4.0,8.0,64,0.00,,,0.00,0.000000,,2013-05-24 15:22:00,
2013-05-24 05:43:00,72.0,59.0,-100.00,East,84,4.0,8.0,64,0.00,,,0.00,0.000000,,2013-05-24 15:43:00,
2013-05-24 05:52:00,72.0,59.0,-100.00,East,84,4.0,8.0,64,0.00,,,0.00,0.000000,,2013-05-24 15:52:00,
2013-05-24 06:03:00,72.0,59.0,-100.00,East,84,4.0,8.0,64,0.00,,,0.00,0.000000,,2013-05-24 16:03:00,
2013-05-24 06:12:00,72.0,59.0,-100.00,East,84,4.0,8.0,64,0.00,,,0.00,0.000000,,2013-05-24 16:12:00,
2013-05-24 06:22:00,72.0,59.0,-100.00,East,79,4.0,9.0,63,0.00,,,0.00,1.000000,,2013-05-24 16:22:00,
2013-05-24 06:42:00,72.0,59.0,-100.00,East,79,4.0,9.0,63,0.00,,,0.00,1.000000,,2013-05-24 16:42:00,
2013-05-24 06:52:00,72.0,59.0,-100.00,East,79,4.0,9.0,63,0.00,,,0.00,1.000000,,2013-05-24 16:52:00,
2013-05-24 07:01:00,72.0,59.0,-100.00,East,79,4.0,9.0,63,0.00,,,0.00,1.000000,,2013-05-24 17:01:00,
2013-05-24 07:12:00,72.0,59.0,-100.00,East,79,4.0,9.0,63,0.00,,,0.00,1.000000,,2013-05-24 17:12:00,
2013-05-24 07:42:00,73.0,58.0,-100.00,ENE,73,4.0,9.0,60,0.00,,,0.00,92.000000,,2013-05-24 17:42:00,
2013-05-24 07:52:00,73.0,58.0,-100.00,ENE,73,4.0,9.0,60,0.00,,,0.00,92.000000,,2013-05-24 17:52:00,
2013-05-24 08:01:00,73.0,58.0,-100.00,ENE,73,4.0,9.0,60,0.00,,,0.00,92.000000,,2013-05-24 18:01:00,
2013-05-24 08:11:00,73.0,58.0,-100.00,ENE,73,4.0,9.0,60,0.00,,,0.00,92.000000,,2013-05-24 18:11:00,
2013-05-24 08:21:00,73.0,58.0,-100.00,ENE,73,4.0,9.0,60,0.00,,,0.00,92.000000,,2013-05-24 18:21:00,
2013-05-24 08:42:00,78.0,71.0,-100.00,NE,34,3.0,8.0,78,0.00,,,0.00,154.000000,,2013-05-24 18:42:00,
2013-05-24 08:52:00,78.0,71.0,-100.00,NE,34,3.0,8.0,78,0.00,,,0.00,154.000000,,2013-05-24 18:52:00,
2013-05-24 09:01:00,78.0,71.0,-100.00,NE,34,3.0,8.0,78,0.00,,,0.00,154.000000,,2013-05-24 19:01:00,
2013-05-24 09:11:00,78.0,71.0,-100.00,NE,34,3.0,8.0,78,0.00,,,0.00,154.000000,,2013-05-24 19:11:00,
2013-05-24 09:21:00,78.0,71.0,-100.00,NE,34,3.0,8.0,78,0.00,,,0.00,154.000000,,2013-05-24 19:21:00,
2013-05-24 09:42:00,76.0,67.0,-100.00,West,266,4.0,10.0,73,0.00,,,0.00,105.000000,,2013-05-24 19:42:00,
2013-05-24 09:52:00,76.0,67.0,-100.00,West,266,4.0,10.0,73,0.00,,,0.00,105.000000,,2013-05-24 19:52:00,
2013-05-24 10:02:00,76.0,67.0,-100.00,West,266,4.0,10.0,73,0.00,,,0.00,105.000000,,2013-05-24 20:02:00,
2013-05-24 10:11:00,76.0,67.0,-100.00,West,266,4.0,10.0,73,0.00,,,0.00,105.000000,,2013-05-24 20:11:00,
2013-05-24 10:21:00,76.0,67.0,-100.00,West,266,4.0,10.0,73,0.00,,,0.00,105.000000,,2013-05-24 20:21:00,
2013-05-24 10:42:00,78.0,65.0,-100.00,WSW,257,3.0,7.0,65,0.00,,,0.00,288.000000,,2013-05-24 20:42:00,
2013-05-24 10:52:00,78.0,65.0,-100.00,WSW,257,3.0,7.0,65,0.00,,,0.00,288.000000,,2013-05-24 20:52:00,
2013-05-24 11:01:00,78.0,65.0,-100.00,WSW,257,3.0,7.0,65,0.00,,,0.00,288.000000,,2013-05-24 21:01:00,
2013-05-24 11:11:00,78.0,65.0,-100.00,WSW,257,3.0,7.0,65,0.00,,,0.00,288.000000,,2013-05-24 21:11:00,
2013-05-24 11:21:00,78.0,65.0,-100.00,WSW,257,3.0,7.0,65,0.00,,,0.00,288.000000,,2013-05-24 21:21:00,
2013-05-24 11:22:00,79.0,66.0,-100.00,West,267,3.0,7.0,64,0.00,,,0.00,301.000000,,2013-05-24 21:22:00,
2013-05-24 11:43:00,79.0,66.0,-100.00,West,267,3.0,7.0,64,0.00,,,0.00,301.000000,,2013-05-24 21:43:00,
2013-05-24 11:53:00,79.0,66.0,-100.00,West,267,3.0,7.0,64,0.00,,,0.00,301.000000,,2013-05-24 21:53:00,
2013-05-24 12:02:00,79.0,66.0,-100.00,West,267,3.0,7.0,64,0.00,,,0.00,301.000000,,2013-05-24 22:02:00,
2013-05-24 12:12:00,79.0,66.0,-100.00,West,267,3.0,7.0,64,0.00,,,0.00,301.000000,,2013-05-24 22:12:00,
2013-05-24 12:42:00,80.0,66.0,-100.00,West,267,3.0,8.0,63,0.00,,,0.00,441.000000,,2013-05-24 22:42:00,
2013-05-24 12:52:00,80.0,66.0,-100.00,West,267,3.0,8.0,63,0.00,,,0.00,441.000000,,2013-05-24 22:52:00,
2013-05-24 13:02:00,80.0,66.0,-100.00,West,267,3.0,8.0,63,0.00,,,0.00,441.000000,,2013-05-24 23:02:00,
2013-05-24 13:11:00,80.0,66.0,-100.00,West,267,3.0,8.0,63,0.00,,,0.00,441.000000,,2013-05-24 23:11:00,
2013-05-24 13:21:00,80.0,66.0,-100.00,West,267,3.0,8.0,63,0.00,,,0.00,441.000000,,2013-05-24 23:21:00,
2013-05-24 13:42:00,80.0,66.0,-100.00,West,271,4.0,8.0,63,0.00,,,0.00,363.000000,,2013-05-24 23:42:00,
2013-05-24 13:52:00,80.0,66.0,-100.00,West,271,4.0,8.0,63,0.00,,,0.00,363.000000,,2013-05-24 23:52:00,
2013-05-24 14:01:00,80.0,66.0,-100.00,West,271,4.0,8.0,63,0.00,,,0.00,363.000000,,2013-05-25 00:01:00,
2013-05-24 14:11:00,80.0,66.0,-100.00,West,271,4.0,8.0,63,0.00,,,0.00,363.000000,,2013-05-25 00:11:00,
2013-05-24 14:21:00,80.0,66.0,-100.00,West,271,4.0,8.0,63,0.00,,,0.00,363.000000,,2013-05-25 00:21:00,
2013-05-24 14:42:00,80.0,67.0,-100.00,West,273,4.0,11.0,65,0.00,,,0.00,343.000000,,2013-05-25 00:42:00,
2013-05-24 14:52:00,80.0,67.0,-100.00,West,273,4.0,11.0,65,0.00,,,0.00,343.000000,,2013-05-25 00:52:00,
2013-05-24 15:01:00,80.0,67.0,-100.00,West,273,4.0,11.0,65,0.00,,,0.00,343.000000,,2013-05-25 01:01:00,
2013-05-24 15:11:00,80.0,67.0,-100.00,West,273,4.0,11.0,65,0.00,,,0.00,343.000000,,2013-05-25 01:11:00,
2013-05-24 15:21:00,80.0,67.0,-100.00,West,273,4.0,11.0,65,0.00,,,0.00,343.000000,,2013-05-25 01:21:00,
2013-05-24 15:42:00,79.0,69.0,-100.00,West,278,4.0,9.0,72,0.00,,,0.00,167.000000,,2013-05-25 01:42:00,
2013-05-24 15:52:00,79.0,69.0,-100.00,West,278,4.0,9.0,72,0.00,,,0.00,167.000000,,2013-05-25 01:52:00,
2013-05-24 16:01:00,79.0,69.0,-100.00,West,278,4.0,9.0,72,0.00,,,0.00,167.000000,,2013-05-25 02:01:00,
2013-05-24 16:11:00,79.0,69.0,-100.00,West,278,4.0,9.0,72,0.00,,,0.00,167.000000,,2013-05-25 02:11:00,
2013-05-24 16:21:00,79.0,69.0,-100.00,West,278,4.0,9.0,72,0.00,,,0.00,167.000000,,2013-05-25 02:21:00,
2013-05-24 16:42:00,77.0,69.0,-100.00,West,269,3.0,8.0,77,0.00,,,0.00,64.000000,,2013-05-25 02:42:00,
2013-05-24 16:52:00,77.0,69.0,-100.00,West,269,3.0,8.0,77,0.00,,,0.00,64.000000,,2013-05-25 02:52:00,
2013-05-24 17:01:00,77.0,69.0,-100.00,West,269,3.0,8.0,77,0.00,,,0.00,64.000000,,2013-05-25 03:01:00,
2013-05-24 17:11:00,77.0,69.0,-100.00,West,269,3.0,8.0,77,0.00,,,0.00,64.000000,,2013-05-25 03:11:00,
2013-05-24 17:21:00,77.0,69.0,-100.00,West,269,3.0,8.0,77,0.00,,,0.00,64.000000,,2013-05-25 03:21:00,
2013-05-24 17:22:00,75.0,71.0,-100.00,South,177,2.0,6.0,87,0.03,,,0.03,23.000000,,2013-05-25 03:22:00,
2013-05-24 17:43:00,75.0,71.0,-100.00,South,177,2.0,6.0,87,0.03,,,0.03,23.000000,,2013-05-25 03:43:00,
2013-05-24 17:53:00,75.0,71.0,-100.00,South,177,2.0,6.0,87,0.03,,,0.03,23.000000,,2013-05-25 03:53:00,
2013-05-24 18:02:00,75.0,71.0,-100.00,South,177,2.0,6.0,87,0.03,,,0.03,23.000000,,2013-05-25 04:02:00,
2013-05-24 18:12:00,75.0,71.0,-100.00,South,177,2.0,6.0,87,0.03,,,0.03,23.000000,,2013-05-25 04:12:00,
2013-05-24 18:22:00,73.0,70.0,-100.00,East,100,2.0,8.0,91,0.09,,,0.12,17.000000,,2013-05-25 04:22:00,
2013-05-24 18:43:00,73.0,70.0,-100.00,East,100,2.0,8.0,91,0.09,,,0.12,17.000000,,2013-05-25 04:43:00,
2013-05-24 18:52:00,73.0,70.0,-100.00,East,100,2.0,8.0,91,0.09,,,0.12,17.000000,,2013-05-25 04:52:00,
2013-05-24 19:02:00,73.0,70.0,-100.00,East,100,2.0,8.0,91,0.09,,,0.12,17.000000,,2013-05-25 05:02:00,
2013-05-24 19:12:00,73.0,70.0,-100.00,East,100,2.0,8.0,91,0.09,,,0.12,17.000000,,2013-05-25 05:12:00,
2013-05-24 19:43:00,73.0,70.0,-100.00,East,84,1.0,3.0,91,0.00,,,0.12,9.000000,,2013-05-25 05:43:00,
2013-05-24 19:52:00,73.0,70.0,-100.00,East,84,1.0,3.0,91,0.00,,,0.12,9.000000,,2013-05-25 05:52:00,
2013-05-24 20:02:00,73.0,70.0,-100.00,East,84,1.0,3.0,91,0.00,,,0.12,9.000000,,2013-05-25 06:02:00,
2013-05-24 20:12:00,73.0,70.0,-100.00,East,84,1.0,3.0,91,0.00,,,0.12,9.000000,,2013-05-25 06:12:00,
2013-05-24 20:21:00,73.0,70.0,-100.00,East,84,1.0,3.0,91,0.00,,,0.12,9.000000,,2013-05-25 06:21:00,
2013-05-24 20:42:00,73.0,70.0,-100.00,East,85,1.0,4.0,90,0.00,,,0.12,0.000000,,2013-05-25 06:42:00,
2013-05-24 20:52:00,73.0,70.0,-100.00,East,85,1.0,4.0,90,0.00,,,0.12,0.000000,,2013-05-25 06:52:00,
2013-05-24 21:01:00,73.0,70.0,-100.00,East,85,1.0,4.0,90,0.00,,,0.12,0.000000,,2013-05-25 07:01:00,
2013-05-24 21:11:00,73.0,70.0,-100.00,East,85,1.0,4.0,90,0.00,,,0.12,0.000000,,2013-05-25 07:11:00,
2013-05-24 21:21:00,73.0,70.0,-100.00,East,85,1.0,4.0,90,0.00,,,0.12,0.000000,,2013-05-25 07:21:00,
2013-05-24 21:22:00,73.0,70.0,-100.00,East,101,1.0,3.0,90,0.00,,,0.12,0.000000,,2013-05-25 07:22:00,
2013-05-24 21:42:00,73.0,70.0,-100.00,East,101,1.0,3.0,90,0.00,,,0.12,0.000000,,2013-05-25 07:42:00,
2013-05-24 21:52:00,73.0,70.0,-100.00,East,101,1.0,3.0,90,0.00,,,0.12,0.000000,,2013-05-25 07:52:00,
2013-05-24 22:02:00,73.0,70.0,-100.00,East,101,1.0,3.0,90,0.00,,,0.12,0.000000,,2013-05-25 08:02:00,
2013-05-24 22:11:00,73.0,70.0,-100.00,East,101,1.0,3.0,90,0.00,,,0.12,0.000000,,2013-05-25 08:11:00,
2013-05-24 22:42:00,72.0,68.0,-100.00,ENE,73,2.0,5.0,88,0.00,,,0.12,0.000000,,2013-05-25 08:42:00,
2013-05-24 22:52:00,72.0,68.0,-100.00,ENE,73,2.0,5.0,88,0.00,,,0.12,0.000000,,2013-05-25 08:52:00,
2013-05-24 23:01:00,72.0,68.0,-100.00,ENE,73,2.0,5.0,88,0.00,,,0.12,0.000000,,2013-05-25 09:01:00,
2013-05-24 23:11:00,72.0,68.0,-100.00,ENE,73,2.0,5.0,88,0.00,,,0.12,0.000000,,2013-05-25 09:11:00,
2013-05-24 23:21:00,72.0,68.0,-100.00,ENE,73,2.0,5.0,88,0.00,,,0.12,0.000000,,2013-05-25 09:21:00,
2013-05-24 23:22:00,72.0,68.0,-100.00,East,95,1.0,5.0,86,0.00,,,0.12,0.000000,,2013-05-25 09:22:00,
2013-05-24 23:43:00,72.0,68.0,-100.00,East,95,1.0,5.0,86,0.00,,,0.12,0.000000,,2013-05-25 09:43:00,
2013-05-24 23:53:00,72.0,68.0,-100.00,East,95,1.0,5.0,86,0.00,,,0.12,0.000000,,2013-05-25 09:53:00,